Iowa City, IA

4:33 AM CDT on March 28, 2017 (GMT -0500)
Iowa City Municipal

Weather History for KIOW - January, 2013

Change the Weather History Date:

Saturday, January 19, 2013

  Actual Average Record
Temperature  
Mean Temperature 36 °F 22 °F  
Max Temperature 52 °F 30 °F 55 °F (2006)
Min Temperature 19 °F 14 °F -17 °F (1985)
Degree Days  
Heating Degree Days 29 43  
Month to date heating degree days 721 817  
Since 1 July heating degree days 3093 3356  
Cooling Degree Days 0 0  
Month to date cooling degree days 0 0  
Year to date cooling degree days 0 0  
Moisture  
Dew Point 27 °F    
Average Humidity 60    
Maximum Humidity 76    
Minimum Humidity 44    
Precipitation  
Precipitation 0.00 in 0.03 in 0.89 in (1988)
Month to date precipitation 0.17 0.40  
Year to date precipitation 0.17 0.40  
Sea Level Pressure  
Sea Level Pressure 29.95 in    
Wind  
Wind Speed 14 mph (West)    
Max Wind Speed 33 mph    
Max Gust Speed 51 mph    
Visibility 10 miles    
Events      
T = Trace of Precipitation, MM = Missing Value Source: NWS Daily Summary

Daily Weather History Graph

Daily Weather History Graph

Search for Another Location

Airport or City:

Trip Planner

Search our weather history database for the weather conditions in past years. The results will help you decide how hot, cold, wet, or windy it might be!

Date:

Astronomy

Jan. 19, 2013 Rise Set
Actual Time 7:28 AM CST 5:06 PM CST
Civil Twilight 6:58 AM CST 5:36 PM CST
Nautical Twilight 6:24 AM CST 6:10 PM CST
Astronomical Twilight 5:51 AM CST 6:43 PM CST
Moon 11:33 AM CST (1/19) 1:01 AM CST (1/19)
Length of Visible Light 10h 38m
Length of Day
9h 37m
First Quarter, 57% of the Moon is Illuminated
Jan 19
First Quarter
Jan 26
Full
Feb 3
Last Quarter
Feb 10
New
Feb 17
First Quarter

Hourly Weather History & Observations

Time (CST) Temp. Windchill Dew Point Humidity Pressure Visibility Wind Dir Wind Speed Gust Speed Precip Events Conditions
12:52 AM 37.9 °F 33.5 °F 30.0 °F 73% 29.93 in 10.0 mi SW 5.8 mph - N/A   Clear
1:52 AM 37.9 °F 32.7 °F 30.0 °F 73% 29.93 in 10.0 mi SSW 6.9 mph - N/A   Clear
2:52 AM 37.9 °F 33.5 °F 30.0 °F 73% 29.92 in 10.0 mi SSW 5.8 mph - N/A   Clear
3:52 AM 37.0 °F 31.6 °F 30.0 °F 76% 29.90 in 10.0 mi South 6.9 mph - N/A   Clear
4:52 AM 37.0 °F 33.3 °F 30.0 °F 76% 29.88 in 10.0 mi SSW 4.6 mph - N/A   Clear
5:52 AM 37.9 °F 33.5 °F 30.0 °F 73% 29.87 in 10.0 mi SSW 5.8 mph - N/A   Clear
6:52 AM 37.9 °F 32.7 °F 30.0 °F 73% 29.86 in 10.0 mi SW 6.9 mph - N/A   Clear
7:52 AM 37.9 °F 34.4 °F 30.0 °F 73% 29.87 in 10.0 mi WSW 4.6 mph - N/A   Clear
8:52 AM 39.9 °F 34.5 °F 30.9 °F 70% 29.86 in 10.0 mi SSW 8.1 mph - N/A   Partly Cloudy
9:52 AM 42.1 °F 36.6 °F 32.0 °F 67% 29.87 in 10.0 mi SW 9.2 mph 17.3 mph N/A   Partly Cloudy
10:52 AM 44.1 °F 36.2 °F 32.0 °F 63% 29.88 in 10.0 mi West 18.4 mph 24.2 mph N/A   Mostly Cloudy
11:52 AM 46.9 °F - 32.0 °F 56% 29.84 in 10.0 mi WSW 18.4 mph 24.2 mph N/A   Clear
12:52 PM 50.0 °F - 32.0 °F 50% 29.82 in 10.0 mi WSW 13.8 mph - N/A   Clear
1:52 PM 51.1 °F - 30.0 °F 44% 29.82 in 10.0 mi WNW 21.9 mph 28.8 mph N/A   Clear
2:52 PM 52.0 °F - 30.9 °F 45% 29.84 in 10.0 mi West 19.6 mph 27.6 mph N/A   Clear
3:52 PM 50.0 °F - 32.0 °F 50% 29.87 in 10.0 mi West 15.0 mph - N/A   Clear
4:52 PM 46.9 °F - 32.0 °F 56% 29.91 in 10.0 mi West 13.8 mph 23.0 mph N/A   Clear
5:52 PM 45.0 °F 38.9 °F 30.9 °F 58% 29.94 in 10.0 mi WNW 12.7 mph 27.6 mph N/A   Clear
6:52 PM 42.1 °F 33.6 °F 30.9 °F 65% 29.98 in 10.0 mi WNW 18.4 mph 26.5 mph N/A   Clear
7:52 PM 41.0 °F 29.8 °F 28.0 °F 60% 30.02 in 10.0 mi WNW 29.9 mph 40.3 mph N/A   Overcast
8:52 PM 32.0 °F 20.5 °F 23.0 °F 69% 30.08 in 10.0 mi NW 18.4 mph 38.0 mph N/A   Clear
9:18 PM 28.4 °F 14.4 °F 17.6 °F 64% 30.09 in 10.0 mi NNW 23.0 mph 40.3 mph N/A   Mostly Cloudy
9:34 PM 26.6 °F 11.1 °F 12.2 °F 55% 30.11 in 10.0 mi NW 26.5 mph 42.6 mph N/A   Overcast
9:52 PM 26.1 °F 9.8 °F 10.0 °F 51% 30.14 in 10.0 mi NW 28.8 mph 38.0 mph N/A   Mostly Cloudy
10:52 PM 21.9 °F 6.9 °F 10.9 °F 63% 30.19 in 10.0 mi NW 19.6 mph 31.1 mph N/A   Clear
11:52 PM 19.0 °F 3.6 °F 7.0 °F 59% 30.22 in 10.0 mi NW 18.4 mph 28.8 mph N/A   Clear